Terminal Aerodrome Forecast
Issued by NWS Milwaukee/Sullivan, WI

Home | Current Version | Previous Version | Text Only | Print | Product List | Glossary On
Versions: 1 2 3 4 5 6 7 8 9 10 11 12 13 14 15 16 17 18 19 20 21 22 23 24 25 26 27 28 29 30 31 32 33 34 35 36 37 38 39 40 41 42 43 44 45 46 47 48 49 50
796
FTUS43 KMKX 250117 AAA
TAFMSN
TAF AMD
KMSN 250117Z 2501/2524 11006KT P6SM BKN018
     FM250400 12006KT P6SM SCT018
     FM250700 14004KT P6SM SCT015 BKN090
     FM251500 16008KT P6SM SCT015 OVC025
      TEMPO 2516/2520 4SM TSRA BKN015CB
     FM252000 19009KT P6SM VCSH OVC025
     FM252200 23008KT P6SM VCSH OVC035=

USA.gov is the U.S. government's official web portal to all federal, state and local government web resources and services.